Terug naar catalogus

STARLINK-11603

ActiefCommunicatieVLEO
NORAD 63671·PAYLOAD·🇺🇸 United States

Gelanceerd Apr 28, 2025 vanaf Cape Canaveral Space Force Station

Loading…

Volgende Passages (komende 24 uur)

TLE

VersSource: CelesTrak SupGP

Epoch: Sep 14, 2026, 21:08 UTC

1 63671C 25085H   26257.88104167  .00061085  00000+0  47463-3 0  2573
2 63671  43.0006 218.1209 0001576 260.5474 174.4936 15.70798925    16

Volg STARLINK-11603 in realtime met AllMySat

Download on the App Store